Regional Weather Roundup
Issued by NWS

Home | Current Version | Previous Version | Text Only | Print | Product List | Glossary Off
Versions: 1 2 3 4 5 6 7 8 9 10 11 12 13 14 15 16 17 18 19 20 21 22 23 24 25 26 27 28 29 30 31 32 33 34 35 36 37 38 39 40 41 42 43 44 45 46 47 48 49 50

000
ASUS43 KOAX 221210
RWRNE

WEATHER ROUNDUP FOR NEBRASKA
NATIONAL WEATHER SERVICE OMAHA NE
700 AM CDT SUN APR 22 2018

NOTES: SATELLITE DATA IS BEING USED TO AUGMENT CLOUD COVER ABOVE
       12000 FEET.
       "FAIR" INDICATES FEW OR NO CLOUDS BELOW 12,000 FEET WITH NO
       SIGNIFICANT WEATHER AND/OR OBSTRUCTIONS TO VISIBILITY.


NEZ001>004-019>022-054>056-221300-
NEBRASKA PANHANDLE

CITY           SKY/WX    TMP DP  RH WIND       PRES   REMARKS
SCOTTSBLUFF    CLEAR     32  32 100 E8        30.16R FOG     WCI  25
6HR MIN TEMP:  32; 6HR MAX TEMP:  35;

ALLIANCE       CLOUDY    37  37 100 S8        30.17R WCI  31
6HR MIN TEMP:  32; 6HR MAX TEMP:  37;

CHADRON        CLEAR     31  30  96 S5        30.16R WCI  26
6HR MIN TEMP:  29; 6HR MAX TEMP:  38;

GORDON         CLOUDY    37  35  91 S10       30.18R WCI  30
6HR MIN TEMP:  33; 6HR MAX TEMP:  37;

KIMBALL        FOG       35  35 100 S6        30.17R VSB 1/2 WCI  30
SIDNEY         CLOUDY    36  33  89 S8        30.19R WCI  30
6HR MIN TEMP:  34; 6HR MAX TEMP:  38;

$$

NEZ057>060-069>072-079>082-221300-
SOUTHWEST NEBRASKA

CITY           SKY/WX    TMP DP  RH WIND       PRES   REMARKS
NORTH PLATTE   CLOUDY    39  38  96 N3        30.23R FOG
6HR MIN TEMP:  39; 6HR MAX TEMP:  41;

IMPERIAL       CLOUDY    39  39 100 S5        30.21S
6HR MIN TEMP:  38; 6HR MAX TEMP:  40;

LEXINGTON      MOCLDY    37  36  94 NW7       30.23R FOG     WCI  32
MCCOOK         CLOUDY    39  39 100 CALM      30.22S FOG
6HR MIN TEMP:  39; 6HR MAX TEMP:  41;

OGALLALA       CLOUDY    38  37  99 CALM      30.22R FOG
$$

NEZ005>010-023>029-035>040-094-221300-
NORTH CENTRAL NEBRASKA

CITY           SKY/WX    TMP DP  RH WIND       PRES   REMARKS
VALENTINE      CLEAR     38  35  89 S5        30.22R WCI  34
6HR MIN TEMP:  37; 6HR MAX TEMP:  42;

AINSWORTH      CLOUDY    37  36  99 SE5       30.23F WCI  33
BROKEN BOW     CLEAR     33  31  92 NW5       30.22S WCI  29
6HR MIN TEMP:  33; 6HR MAX TEMP:  42;

O`NEILL        CLEAR     38  37  96 CALM      30.26R
ORD            MOCLDY    39  37  92 NW6       30.23R WCI  35
6HR MIN TEMP:  37; 6HR MAX TEMP:  42;

THEDFORD       MOCLDY    39  37  91 SW7       30.22F WCI  34
$$

NEZ041-046>049-061>064-073>077-083>087-221300-
SOUTH CENTRAL NEBRASKA

CITY           SKY/WX    TMP DP  RH WIND       PRES   REMARKS
GRAND ISLAND   CLOUDY    40  37  89 N8        30.24R WCI  34
6HR MIN TEMP:  37; 6HR MAX TEMP:  41;

AURORA         PTCLDY    37  36  96 N8        30.23R WCI  30
HASTINGS       CLOUDY    40  39  97 N10       30.23R WCI  33
6HR MIN TEMP:  39; 6HR MAX TEMP:  41; 6HR PCP:  0.01;

HEBRON         CLEAR     38  35  88 N6        30.21R WCI  34
HOLDREGE       CLOUDY    38  38 100 N6        30.21R FOG     WCI  33
KEARNEY        CLOUDY    40  38  93 N8        30.23R WCI  34
YORK             N/A     34  34 100 N6        30.22R WCI  29
$$

NEZ011>018-030>034-042>045-221300-
NORTHEAST NEBRASKA

CITY           SKY/WX    TMP DP  RH WIND       PRES   REMARKS
NORFOLK        PTCLDY    32  31  96 W3        30.24S
6HR MIN TEMP:  31; 6HR MAX TEMP:  43;

ALBION         PTCLDY    37  34  90 NW5       30.25R WCI  33
BLAIR          PTCLDY    44  32  63 NE9       30.22R
COLUMBUS       CLOUDY    35  28  75 N7        30.25R WCI  29
FREMONT        CLEAR     36  31  81 CALM      30.23R
TEKAMAH        CLOUDY    38  32  79 N10       30.24R WCI  31
6HR MIN TEMP:  37; 6HR MAX TEMP:  42;

WAYNE          CLOUDY    30  29  96 CALM      30.26R
$$

NEZ050>053-065>068-078-088>093-221300-
SOUTHEAST NEBRASKA

CITY           SKY/WX    TMP DP  RH WIND       PRES   REMARKS
LINCOLN        CLEAR     37  29  72 N6        30.23R WCI  32
6HR MIN TEMP:  34; 6HR MAX TEMP:  47;

OMAHA EPPLEY   MOCLDY    41  32  70 NW5       30.22R
6HR MIN TEMP:  40; 6HR MAX TEMP:  52;

BEATRICE       PTCLDY    40  33  78 NE9       30.19R WCI  33
FALLS CITY     PTCLDY    46  31  55 NE8       30.15S
6HR MIN TEMP:  45; 6HR MAX TEMP:  50;

NEBRASKA CITY  PTCLDY    43  32  66 NE8       30.19R
PLATTSMOUTH    CLOUDY    43  31  63 N5        30.20R
$$

NEZ044-045-051>053-067-221300-
OMAHA AREA

CITY           SKY/WX    TMP DP  RH WIND       PRES   REMARKS
OMAHA EPPLEY   MOCLDY    41  32  70 NW5       30.22R
6HR MIN TEMP:  40; 6HR MAX TEMP:  52;

BLAIR          PTCLDY    44  32  63 NE9       30.22R
FREMONT        CLEAR     36  31  81 CALM      30.23R
MILLARD        CLOUDY    48  32  53 CALM      30.22R
OFFUTT AFB     CLOUDY    45  32  60 NE5       30.21R
PLATTSMOUTH    CLOUDY    43  31  63 N5        30.20R
WAHOO          FAIR      35  28  76 N6        30.22R WCI  30
$$




USA.gov is the U.S. government's official web portal to all federal, state and local government web resources and services.